Weather in Kosino

Russia / Kirov Oblast     58°24′24″N   51°16′51″E
temp.,
°C
wind,
m/s
gust,
m/s
humid.,
%
clouds,
%
prec.,
mm/h
press.,
hPa
HPBL,
m
13 june, sun
sun1300:00+12ese399857 0.0 1015345
03:00+12ese389929 0.0 1014236
06:00+15se468529 0.0 1014432
09:00+20sse467083 0.0 1013933
12:00+19s3678100 0.3 1013895
15:00+23s356027 0.4 10121329
18:00+20s377965 0.5 1012561
21:00+16sse299588 0.6 1013207
14 june, mon
mon1400:00+15sse279711 0.0 1013153
03:00+14se279814 0.0 1014173
06:00+18s4984100 0.0 1014397
09:00+21ssw598389 0.8 1014755
12:00+22ssw598336 4.1 10131236
15:00+22sw598210 7.2 10141045
18:00+20wsw388788 1.4 1013322
21:00+16sw23954 2.4 101456
15 june, tue
tue1500:00+15sw23960 0.0 101457
03:00+14wsw22965 0.1 101523
06:00+18w12895 0.0 1015142
09:00+23sw22601 0.0 1014813
12:00+26sw33461 0.1 10131697
15:00+26sw33459 0.1 10121759
18:00+24sw126612 0.0 101285
21:00+19sse227690 0.0 101217
16 june, wed
wed1600:00+18s237797 0.0 101269
03:00+17sse118733 0.0 101123
06:00+18s2492100 0.5 1011156
09:00+20sw1386100 0.6 1010194
12:00+26ssw345224 0.0 10091374
15:00+24ssw356271 0.2 1007776
18:00+22ssw387921 0.6 1005319
21:00+16nw41099100 4.8 1006357
17 june, thu
thu1700:00+15nnw3898100 1.6 1005333
03:00+14nw51198100 1.8 1006751
06:00+13nnw6119248 0.1 1009893
09:00+16n712594 0.3 10111596
12:00+19nnw711375 0.0 10132347
15:00+20nnw611372 0.0 10142740
18:00+18nnw510458 0.0 10162312
21:00+12nnw311540 0.0 1019373